Location: Unspecified
(49.8670°N, 0.0000°E)
Time: 11:36:16
(UTC+00:00)

Vanguard 1 - Pass Details

Date: 22 June 2019
Orbit: 653 x 3830 km, 34.3° (Epoch: 22 July)

Event Time Altitude Azimuth Distance (km) Brightness Sun altitude
Rises 03:24:21 0° 236° (SW) 7,388 - -4.1°
Exits shadow 03:26:32 - 234° (SW) 6,878 13.7 -3.8°
Reaches altitude 10° 03:30:30 10° 229° (SW) 5,931 13.4 -3.4°
Maximum altitude 03:44:16 33° 174° (S) 3,094 12.3 -1.7°
Drops below altitude 10° 03:52:40 10° 114° (ESE) 3,604 13.4 -0.7°
Sets 03:55:23 0° 105° (ESE) 4,250 13.9 -0.3°
